Content
SEND FEEDBACK

Daily
Averages
Monthly
Summary
United States of America

DODGE, NEBRASKA


Home > North America > United States > Nebraska
Elevation: 1400 feet     Latitude: 41 43N     Longitude: 096 53W

WEATHER
 
SELECT A DAY
Number of Records: 433,207;   Date Range: 11/7/95 - 9/20/14
 
SHARE

PRINT THIS DATA

[ ← Previous Day ]
WEATHER ALMANAC - JUNE 7, 2014
[ Next Day → ]
[ °C ]   °F
Weather ElementAverageHighLow
Temperature66.3 °F73.2 °F (12:30 am)58.8 °F (11:55 pm)
Dewpoint57.3 °F64.4 °F (3:15 am)53.6 °F (10:15 pm)
Humidity73 %83 % (3:15 am)59 % (1:55 pm)
Barometer29.98 in30.08 in (11:15 pm)29.90 in (12:30 am)
Wind Speed8.5 mph20.7 mph (4:35 pm)
Wind Gust26.5 mph (4:35 pm)
Weather ElementAverage
Visibility10 mi
Wind DirectionWSW (256.9 °)

Weather ElementTotal
Precipitation---
Cooling Degree Days1 (Base 65)
Growing Degree Days16 (Base 50)
Averaged from 65 records on June 7, 2014
WEATHER CONDITIONS BREAKOUT
WIND DIRECTION BREAKOUT
WEATHER BY HOUR - JUNE 7, 2014
[ °C ]   °F
Local TimeTemperatureDewpointHumidityBarometerVisibilityWind DirectionWind SpeedGust SpeedPrecipitationEventsConditions
12:30 AM73.2 °F62.6 °F69 %29.90 in10.0 miSSE (150°)10.4 mphClear
1:00 AM72.1 °F63.3 °F74 %29.90 in10.0 miSE (140°)5.8 mphClear
1:55 AM71.1 °F63.9 °F78 %29.92 in10.0 miSSE (150°)6.9 mphScattered Clouds
2:15 AM71.2 °F63.7 °F77 %29.92 in10.0 miSSE (160°)9.2 mphThunderstormOvercast
2:40 AM70.9 °F63.5 °F77 %29.92 in10.0 miSouth (180°)6.9 mphMostly Cloudy
2:55 AM70.7 °F63.5 °F78 %29.92 in10.0 miWest (270°)4.6 mphOvercast
3:15 AM69.8 °F64.4 °F83 %29.94 in10.0 miWNW (290°)5.8 mphOvercast
3:35 AM70.0 °F64.0 °F81 %29.93 in10.0 miNW (310°)5.8 mphOvercast
3:55 AM67.8 °F58.8 °F73 %29.93 in10.0 miNorth (360°)6.9 mphMostly Cloudy
4:15 AM66.7 °F59.0 °F76 %29.92 in10.0 miNorth (10°)6.9 mphClear
4:35 AM66.4 °F59.2 °F78 %29.92 in10.0 miNorth (10°)6.9 mphScattered Clouds
4:55 AM66.2 °F58.5 °F76 %29.91 in10.0 miNNE (20°)9.2 mphClear
5:15 AM66.2 °F58.5 °F76 %29.91 in10.0 miNorth (10°)8.1 mphClear
5:30 AM66.2 °F58.1 °F75 %29.91 in10.0 miNNE (20°)6.9 mphClear
5:55 AM65.8 °F57.6 °F75 %29.91 in10.0 miNNE (30°)5.8 mph9.2 mphClear
6:15 AM65.5 °F57.7 °F76 %29.91 in10.0 miNNE (30°)6.9 mphClear
6:55 AM65.5 °F57.2 °F75 %29.92 in10.0 miNNE (20°)5.8 mphMostly Cloudy
7:15 AM65.5 °F56.5 °F73 %29.92 in10.0 miNNE (30°)6.9 mphOvercast
7:35 AM65.3 °F57.2 °F75 %29.94 in10.0 miNorth (350°)5.8 mphRainLight Rain
7:55 AM64.8 °F57.9 °F78 %29.94 in10.0 miNNW (330°)6.9 mphLight Drizzle
8:35 AM64.9 °F59.0 °F81 %29.94 in10.0 miNNW (330°)8.1 mphOvercast
8:55 AM64.9 °F59.7 °F83 %29.96 in10.0 miNW (310°)11.5 mphOvercast
9:15 AM65.3 °F60.1 °F83 %29.96 in10.0 miNW (320°)12.7 mphOvercast
9:35 AM64.4 °F59.0 °F83 %29.96 in10.0 miNW (310°)11.5 mphOvercast
9:55 AM63.0 °F57.6 °F82 %29.97 in10.0 miNW (320°)12.7 mphOvercast
10:15 AM63.0 °F56.8 °F80 %29.97 in10.0 miNNW (330°)8.1 mph19.6 mphOvercast
10:35 AM64.2 °F57.2 °F78 %29.97 in10.0 miNNW (340°)12.7 mph19.6 mphOvercast
10:55 AM65.3 °F57.0 °F75 %29.97 in10.0 miNorth (350°)11.5 mph17.3 mphOvercast
11:15 AM67.8 °F57.4 °F69 %29.97 in10.0 miNorth (350°)12.7 mph17.3 mphMostly Cloudy
11:35 AM65.8 °F56.3 °F71 %29.98 in10.0 miNorth (350°)11.5 mph18.4 mphMostly Cloudy
12:15 PM68.0 °F56.8 °F67 %29.98 in10.0 miNorth (360°)10.4 mph17.3 mphOvercast
12:35 PM69.4 °F57.7 °F66 %29.98 in10.0 miNorth (10°)10.4 mph17.3 mphMostly Cloudy
12:55 PM69.4 °F57.0 °F65 %29.99 in10.0 miNorth (360°)8.1 mphOvercast
1:15 PM70.9 °F58.1 °F64 %29.98 in10.0 miNorth (350°)11.5 mph17.3 mphMostly Cloudy
1:35 PM71.6 °F57.0 °F60 %29.98 in10.0 miNorth (360°)10.4 mph18.4 mphMostly Cloudy
1:55 PM71.8 °F56.8 °F59 %29.97 in10.0 miNorth (360°)8.1 mphScattered Clouds
2:35 PM72.5 °F57.2 °F59 %29.97 in10.0 miNNE (20°)8.1 mphClear
3:00 PM72.3 °F57.0 °F59 %29.98 in10.0 miNorth (360°)10.4 mph16.1 mphMostly Cloudy
3:15 PM71.6 °F57.7 °F62 %29.98 in10.0 miNorth (350°)10.4 mph19.6 mphOvercast
3:35 PM70.7 °F57.2 °F62 %29.99 in10.0 miNNW (340°)12.7 mph19.6 mphOvercast
4:15 PM69.4 °F56.5 °F63 %29.99 in10.0 miNNW (340°)12.7 mph21.9 mphOvercast
4:35 PM68.5 °F56.5 °F65 %30.00 in10.0 miNNW (340°)20.7 mph26.5 mphOvercast
4:38 PM68.0 °F57.2 °F68 %30.00 in10.0 miNorth (350°)18.4 mph26.5 mphOvercast
4:55 PM66.4 °F55.9 °F69 %30.01 in10.0 miNNW (340°)17.3 mph25.3 mphOvercast
5:10 PM65.7 °F55.6 °F70 %30.01 in10.0 miNNW (330°)15.0 mph24.2 mphOvercast
5:40 PM65.5 °F55.4 °F70 %30.02 in10.0 miNorth (350°)10.4 mph21.9 mphOvercast
5:55 PM64.9 °F55.4 °F71 %30.01 in10.0 miNNW (340°)11.5 mph20.7 mphOvercast
6:15 PM64.2 °F54.9 °F72 %30.02 in10.0 miNNW (340°)9.2 mph19.6 mphOvercast
6:35 PM64.4 °F54.7 °F71 %30.02 in10.0 miNorth (350°)10.4 mph18.4 mphOvercast
6:55 PM65.1 °F54.9 °F69 %30.02 in10.0 miNorth (360°)8.1 mphMostly Cloudy
7:15 PM64.8 °F54.9 °F70 %30.03 in10.0 miNorth (350°)6.9 mphOvercast
7:35 PM64.9 °F54.9 °F70 %30.03 in10.0 miNorth (360°)5.8 mphOvercast
7:55 PM64.9 °F54.7 °F69 %30.04 in10.0 miNNW (340°)5.8 mphMostly Cloudy
8:15 PM64.4 °F54.5 °F70 %30.04 in10.0 miNNW (340°)6.9 mphMostly Cloudy
8:35 PM63.3 °F54.1 °F72 %30.04 in10.0 miNorth (350°)6.9 mphScattered Clouds
8:55 PM62.8 °F54.1 °F73 %30.04 in10.0 miNorth (350°)5.8 mphClear
9:15 PM62.6 °F54.0 °F73 %30.04 in10.0 miNorth (360°)6.9 mphClear
9:35 PM62.1 °F54.0 °F75 %30.05 in10.0 miNorth (360°)5.8 mphClear
9:55 PM61.9 °F53.8 °F75 %30.06 in10.0 miNorth (360°)5.8 mphScattered Clouds
10:15 PM61.5 °F53.6 °F75 %30.07 in10.0 miNorth (360°)3.5 mphScattered Clouds
10:35 PM61.0 °F54.0 °F78 %30.07 in10.0 miNorth (350°)3.5 mphClear
10:55 PM60.6 °F54.0 °F79 %30.07 in10.0 miCalmClear
11:15 PM59.9 °F53.8 °F80 %30.08 in10.0 miCalmClear
11:35 PM59.2 °F53.6 °F82 %30.08 in10.0 miNNW (330°)4.6 mphClear
11:55 PM58.8 °F53.8 °F83 %30.08 in10.0 miCalmClear
Hourly data recorded from KFET, located miles away from Dodge, Nebraska







STORIES FROM OUR PARTNERS